QPF
0.00 0.00 0.00 0.00 0.00 0.00 0.00 0.00 0.02 0.03 0.01 0.01 0.00 0.00 0.00 0.00 0.00 0.00 0.00 0.00 0.00 0.00 0.02 0.04 0.03 0.01 0.00 0.00 0.00 0.00 0.00 0.00 0.00 0.00 0.01 0.01 0.00 0.00 0.00 0.00 0.00 0.00 0.00 0.00 0.00 0.00 0.00 0.00 0.00
0.00 0.00 0.01 0.02 0.00 0.00 0.00 0.00 0.01 0.03 0.02 0.02 0.00 0.00 0.00 0.00 0.00 0.01 0.00 0.00 0.00 0.00 0.01 0.02 0.03 0.01 0.00 0.00 0.00 0.00 0.00 0.00 0.00 0.00 0.01 0.00 0.00 0.00 0.00 0.00 0.00 0.00 0.00 0.00 0.00 0.00 0.00 0.00 0.00
0.00 0.02 0.03 0.04 0.00 0.00 0.00 0.00 0.00 0.01 0.01 0.01 0.01 0.00 0.00 0.01 0.00 0.00 0.00 0.00 0.00 0.00 0.01 0.00 0.00 0.00 0.00 0.00 0.00 0.00 0.00 0.00 0.00 0.00 0.00 0.00 0.00 0.00 0.00 0.00 0.00 0.00 0.00 0.00 0.00 0.00 0.00 0.01 0.02
0.00 0.00 0.02 0.02 0.00 0.00 0.00 0.00 0.00 0.00 0.00 0.00 0.00 0.00 0.01 0.02 0.00 0.00 0.00 0.00 0.00 0.01 0.03 0.01 0.01 0.00 0.00 0.00 0.00 0.00 0.00 0.00 0.00 0.00 0.00 0.00 0.00 0.00 0.00 0.00 0.00 0.00 0.00 0.00 0.00 0.00 0.00 0.01 0.03
0.00 0.00 0.01 0.00 0.00 0.01 0.00 0.00 0.00 0.00 0.00 0.00 0.00 0.00 0.01 0.01 0.00 0.00 0.00 0.00 0.00 0.01 0.01 0.01 0.01 0.00 0.00 0.00 0.00 0.00 0.00 0.00 0.00 0.00 0.00 0.00 0.00 0.00 0.00 0.00 0.00 0.00 0.00 0.00 0.00 0.00 0.00 0.01 0.05
0.00 0.00 0.00 0.00 0.01 0.02 0.04 0.04 0.00 0.00 0.00 0.00 0.00 0.00 0.02 0.01 0.00 0.00 0.00 0.00 0.02 0.01 0.01 0.01 0.00 0.00 0.00 0.00 0.00 0.00 0.00 0.00 0.00 0.00 0.00 0.00 0.00 0.00 0.00 0.00 0.00 0.00 0.00 0.00 0.00 0.00 0.00 0.01 0.09
0.00 0.00 0.00 0.00 0.01 0.01 0.01 0.00 0.00 0.00 0.00 0.00 0.00 0.00 0.02 0.01 0.00 0.00 0.00 0.00 0.01 0.01 0.00 0.00 0.00 0.00 0.00 0.00 0.00 0.00 0.00 0.00 0.00 0.00 0.00 0.00 0.00 0.00 0.00 0.00 0.00 0.00 0.00 0.00 0.00 0.00 0.00 0.00 0.02
0.00 0.00 0.00 0.00 0.00 0.00 0.00 0.00 0.00 0.00 0.00 0.00 0.00 0.00 0.01 0.01 0.00 0.00 0.01 0.01 0.01 0.00 0.00 0.00 0.00 0.00 0.00 0.00 0.00 0.00 0.00 0.00 0.00 0.00 0.00 0.00 0.00 0.00 0.00 0.00 0.00 0.00 0.00 0.00 0.00 0.00 0.00 0.00 0.00
0.00 0.00 0.00 0.00 0.00 0.00 0.00 0.00 0.00 0.00 0.00 0.00 0.00 0.00 0.00 0.00 0.00 0.00 0.00 0.01 0.01 0.00 0.00 0.00 0.00 0.00 0.00 0.00 0.00 0.00 0.00 0.00 0.00 0.00 0.00 0.01 0.01 0.00 0.00 0.00 0.01 0.00 0.00 0.00 0.00 0.00 0.04 0.02 0.02
0.00 0.00 0.00 0.00 0.00 0.00 0.00 0.00 0.00 0.00 0.00 0.00 0.00 0.00 0.00 0.00 0.00 0.00 0.00 0.00 0.00 0.00 0.00 0.00 0.00 0.00 0.00 0.00 0.00 0.00 0.00 0.00 0.00 0.00 0.00 0.00 0.01 0.01 0.00 0.01 0.04 0.01 0.00 0.00 0.03 0.05 0.09 0.04 0.00
0.00 0.00 0.00 0.00 0.00 0.00 0.00 0.00 0.00 0.00 0.00 0.00 0.00 0.00 0.00 0.00 0.00 0.00 0.00 0.00 0.00 0.00 0.00 0.00 0.00 0.00 0.00 0.00 0.00 0.00 0.00 0.00 0.00 0.00 0.02 0.00 0.00 0.00 0.00 0.00 0.00 0.06 0.02 0.00 0.00 0.00 0.01 0.01 0.00
0.00 0.00 0.00 0.00 0.00 0.00 0.00 0.00 0.00 0.00 0.00 0.00 0.00 0.00 0.00 0.00 0.00 0.00 0.00 0.00 0.00 0.00 0.00 0.00 0.00 0.00 0.00 0.00 0.00 0.00 0.00 0.00 0.00 0.00 0.00 0.00 0.00 0.00 0.00 0.00 0.00 0.00 0.00 0.00 0.03 0.00 0.00 0.00 0.01
0.00 0.00 0.00 0.00 0.00 0.00 0.00 0.00 0.00 0.00 0.00 0.00 0.00 0.00 0.00 0.00 0.00 0.00 0.00 0.00 0.00 0.00 0.00 0.00 0.00 0.00 0.00 0.00 0.00 0.00 0.00 0.00 0.00 0.00 0.00 0.00 0.00 0.00 0.00 0.00 0.00 0.00 0.00 0.00 0.00 0.00 0.00 0.01 0.03
0.00 0.00 0.00 0.00 0.00 0.00 0.00 0.00 0.00 0.00 0.00 0.00 0.00 0.00 0.00 0.00 0.00 0.00 0.00 0.00 0.00 0.00 0.00 0.00 0.00 0.00 0.00 0.00 0.00 0.00 0.00 0.00 0.00 0.00 0.00 0.00 0.00 0.00 0.00 0.00 0.00 0.00 0.01 0.00 0.00 0.00 0.00 0.00 0.01
0.00 0.00 0.00 0.00 0.00 0.00 0.00 0.00 0.00 0.00 0.00 0.00 0.00 0.00 0.00 0.00 0.00 0.00 0.00 0.00 0.00 0.00 0.00 0.00 0.00 0.00 0.00 0.00 0.00 0.00 0.00 0.00 0.00 0.00 0.00 0.00 0.00 0.00 0.00 0.00 0.00 0.00 0.00 0.00 0.00 0.00 0.00 0.00 0.00
0.00 0.00 0.00 0.00 0.00 0.00 0.00 0.00 0.00 0.00 0.00 0.00 0.00 0.00 0.00 0.00 0.00 0.00 0.00 0.00 0.00 0.00 0.00 0.00 0.00 0.00 0.00 0.00 0.00 0.00 0.00 0.00 0.00 0.00 0.00 0.00 0.00 0.00 0.00 0.00 0.00 0.00 0.00 0.00 0.00 0.00 0.00 0.00 0.00
0.00 0.00 0.00 0.00 0.00 0.00 0.00 0.00 0.00 0.00 0.00 0.00 0.00 0.00 0.00 0.00 0.00 0.00 0.00 0.00 0.00 0.00 0.00 0.00 0.00 0.00 0.00 0.00 0.00 0.00 0.00 0.00 0.00 0.00 0.00 0.00 0.00 0.00 0.00 0.00 0.00 0.00 0.00 0.00 0.00 0.00 0.00 0.00 0.00
0.00 0.00 0.00 0.00 0.00 0.00 0.00 0.00 0.00 0.00 0.00 0.00 0.00 0.00 0.00 0.00 0.00 0.00 0.00 0.00 0.00 0.00 0.00 0.00 0.00 0.00 0.00 0.00 0.00 0.00 0.00 0.00 0.00 0.00 0.00 0.00 0.00 0.00 0.00 0.00 0.00 0.00 0.00 0.00 0.00 0.00 0.00 0.00 0.00
0.00 0.00 0.00 0.00 0.00 0.00 0.00 0.00 0.00 0.00 0.00 0.00 0.00 0.00 0.00 0.00 0.00 0.00 0.00 0.00 0.00 0.00 0.00 0.00 0.00 0.00 0.00 0.00 0.00 0.00 0.00 0.00 0.00 0.00 0.00 0.00 0.00 0.00 0.00 0.00 0.00 0.00 0.00 0.01 0.01 0.00 0.02 0.01 0.00
0.00 0.00 0.00 0.00 0.00 0.00 0.00 0.00 0.00 0.00 0.00 0.00 0.00 0.00 0.00 0.00 0.00 0.00 0.00 0.00 0.00 0.00 0.00 0.00 0.00 0.00 0.00 0.00 0.00 0.00 0.00 0.00 0.00 0.00 0.00 0.00 0.00 0.00 0.00 0.00 0.00 0.00 0.00 0.00 0.00 0.01 0.00 0.00 0.00
0.00 0.00 0.00 0.00 0.00 0.00 0.00 0.00 0.00 0.00 0.00 0.00 0.00 0.00 0.00 0.00 0.00 0.00 0.00 0.00 0.00 0.00 0.00 0.00 0.00 0.00 0.00 0.00 0.00 0.00 0.00 0.00 0.00 0.00 0.00 0.00 0.00 0.00 0.00 0.00 0.00 0.01 0.01 0.00 0.00 0.00 0.00 0.00 0.00
0.00 0.00 0.00 0.00 0.00 0.00 0.00 0.00 0.00 0.00 0.00 0.00 0.00 0.00 0.00 0.00 0.00 0.00 0.00 0.00 0.00 0.00 0.00 0.00 0.00 0.00 0.00 0.00 0.00 0.00 0.00 0.00 0.00 0.00 0.00 0.00 0.00 0.00 0.00 0.00 0.00 0.02 0.01 0.00 0.00 0.00 0.00 0.00 0.00
0.00 0.00 0.00 0.00 0.00 0.00 0.00 0.00 0.00 0.00 0.00 0.00 0.00 0.00 0.00 0.00 0.00 0.00 0.00 0.00 0.00 0.00 0.00 0.00 0.00 0.00 0.00 0.00 0.00 0.00 0.00 0.00 0.00 0.00 0.00 0.00 0.00 0.00 0.00 0.00 0.00 0.01 0.00 0.00 0.00 0.00 0.00 0.00 0.00
0.00 0.00 0.00 0.00 0.00 0.00 0.00 0.00 0.00 0.00 0.00 0.00 0.00 0.00 0.00 0.00 0.00 0.00 0.00 0.00 0.00 0.00 0.00 0.00 0.00 0.00 0.00 0.00 0.00 0.00 0.00 0.00 0.00 0.00 0.00 0.00 0.00 0.00 0.00 0.00 0.00 0.00 0.00 0.00 0.00 0.00 0.00 0.00 0.00
0.00 0.00 0.00 0.00 0.00 0.00 0.00 0.00 0.00 0.00 0.00 0.00 0.00 0.00 0.00 0.00 0.00 0.00 0.00 0.00 0.00 0.00 0.00 0.00 0.00 0.00 0.00 0.00 0.00 0.00 0.00 0.00 0.00 0.00 0.00 0.00 0.00 0.00 0.00 0.00 0.00 0.00 0.00 0.00 0.00 0.00 0.00 0.00 0.00
0.00 0.00 0.00 0.00 0.00 0.00 0.00 0.00 0.00 0.00 0.00 0.00 0.00 0.00 0.00 0.00 0.00 0.00 0.00 0.00 0.00 0.00 0.00 0.00 0.00 0.00 0.00 0.00 0.00 0.00 0.00 0.00 0.00 0.00 0.00 0.00 0.00 0.00 0.00 0.00 0.00 0.00 0.00 0.00 0.00 0.00 0.00 0.00 0.00
0.00 0.00 0.00 0.00 0.00 0.00 0.00 0.00 0.00 0.00 0.00 0.00 0.00 0.00 0.00 0.00 0.00 0.00 0.00 0.00 0.00 0.00 0.00 0.00 0.00 0.00 0.00 0.00 0.00 0.00 0.00 0.00 0.00 0.00 0.00 0.00 0.00 0.00 0.00 0.00 0.00 0.00 0.00 0.00 0.00 0.00 0.00 0.00 0.00
0.00 0.00 0.00 0.00 0.00 0.00 0.00 0.00 0.00 0.00 0.00 0.00 0.00 0.00 0.00 0.00 0.00 0.00 0.00 0.00 0.00 0.00 0.00 0.00 0.00 0.00 0.00 0.00 0.00 0.00 0.00 0.00 0.00 0.00 0.00 0.00 0.00 0.00 0.00 0.00 0.00 0.00 0.00 0.00 0.00 0.00 0.00 0.00 0.00
0.00 0.00 0.00 0.00 0.00 0.00 0.00 0.00 0.00 0.00 0.00 0.00 0.00 0.00 0.00 0.00 0.00 0.00 0.00 0.00 0.00 0.00 0.00 0.00 0.00 0.00 0.00 0.00 0.00 0.00 0.00 0.00 0.00 0.00 0.00 0.00 0.00 0.00 0.00 0.00 0.00 0.00 0.00 0.00 0.00 0.00 0.00 0.00 0.00
0.00 0.00 0.00 0.00 0.00 0.00 0.00 0.00 0.00 0.00 0.00 0.00 0.00 0.00 0.00 0.00 0.00 0.00 0.00 0.00 0.00 0.00 0.00 0.00 0.00 0.00 0.00 0.00 0.00 0.00 0.00 0.00 0.00 0.00 0.00 0.00 0.00 0.00 0.00 0.00 0.00 0.00 0.00 0.00 0.00 0.00 0.00 0.00 0.00
MSLP
1009.44 1009.84 1009.96 1010.09 1010.76 1010.69 1011.46 1011.50 1011.32 1011.13 1011.16 1011.39 1011.43 1012.02 1013.00 1013.96 1014.45 1015.74 1016.00 1015.93 1016.04 1016.19 1016.15 1016.04 1016.05 1015.90 1015.92 1016.03 1016.10 1016.06 1016.07 1016.25 1016.41 1016.42 1016.38 1016.34 1016.32 1016.38 1016.56 1016.62 1016.61 1016.70 1016.82 1016.88 1016.94 1016.94 1017.01 1017.10 1017.09
1009.20 1009.91 1010.09 1010.29 1010.72 1010.90 1011.02 1010.97 1011.11 1010.92 1011.23 1011.57 1011.83 1012.38 1013.19 1014.37 1014.82 1015.46 1015.96 1016.09 1015.93 1016.17 1016.36 1016.37 1016.27 1016.22 1016.28 1016.29 1016.28 1016.35 1016.33 1016.47 1016.69 1016.71 1016.66 1016.68 1016.62 1016.68 1016.76 1016.84 1016.92 1017.00 1017.04 1017.20 1017.29 1017.31 1017.48 1017.55 1017.46
1009.27 1009.34 1010.10 1010.41 1010.49 1010.69 1010.47 1010.48 1010.66 1011.26 1011.34 1011.53 1012.38 1012.72 1013.66 1014.71 1015.14 1015.60 1015.81 1016.17 1016.29 1016.52 1016.48 1016.38 1016.40 1016.48 1016.47 1016.55 1016.61 1016.70 1016.72 1016.79 1016.88 1016.95 1016.98 1017.00 1017.01 1016.96 1017.02 1017.11 1017.23 1017.34 1017.43 1017.54 1017.64 1017.67 1017.78 1017.74 1017.73
1009.39 1009.94 1010.42 1010.29 1010.25 1010.09 1009.98 1010.10 1010.50 1011.36 1011.72 1012.08 1012.49 1013.44 1014.39 1014.84 1015.20 1015.63 1016.13 1016.13 1016.63 1016.79 1016.74 1016.48 1016.50 1016.64 1016.79 1016.86 1016.92 1016.99 1017.00 1017.04 1017.10 1017.19 1017.18 1017.22 1017.30 1017.36 1017.34 1017.35 1017.47 1017.62 1017.69 1017.75 1017.77 1017.76 1017.77 1017.83 1017.79
1009.31 1009.76 1009.97 1010.19 1010.29 1009.99 1009.88 1010.19 1010.64 1011.38 1012.00 1012.55 1012.90 1013.97 1014.71 1015.60 1015.68 1016.12 1016.38 1016.52 1016.79 1017.08 1016.91 1016.83 1016.74 1016.87 1017.06 1017.20 1017.25 1017.17 1017.21 1017.26 1017.39 1017.44 1017.42 1017.42 1017.49 1017.63 1017.60 1017.60 1017.62 1017.68 1017.70 1017.77 1017.81 1017.75 1017.68 1017.72 1017.72
1009.20 1009.62 1010.02 1010.39 1010.34 1010.31 1010.18 1010.44 1010.98 1011.73 1012.39 1012.91 1013.42 1014.07 1015.47 1015.96 1016.18 1016.56 1016.71 1016.78 1016.72 1017.05 1017.09 1017.05 1017.01 1017.08 1017.25 1017.41 1017.46 1017.38 1017.41 1017.49 1017.61 1017.72 1017.78 1017.81 1017.77 1017.82 1017.87 1017.84 1017.72 1017.69 1017.71 1017.71 1017.71 1017.76 1017.65 1017.69 1017.56
1009.01 1009.37 1009.77 1010.13 1010.32 1010.37 1010.45 1010.75 1011.32 1012.02 1012.55 1012.99 1013.34 1014.29 1015.67 1016.33 1016.53 1016.69 1016.90 1017.06 1017.02 1017.07 1017.30 1017.41 1017.40 1017.32 1017.42 1017.63 1017.59 1017.57 1017.60 1017.69 1017.85 1017.95 1018.02 1018.03 1017.97 1018.01 1017.92 1017.93 1017.79 1017.66 1017.59 1017.66 1017.74 1017.78 1017.66 1017.53 1017.71
1008.62 1009.09 1009.46 1009.76 1010.19 1010.26 1010.42 1010.91 1011.45 1011.90 1012.80 1013.07 1013.46 1014.41 1015.48 1016.20 1016.68 1016.98 1017.25 1017.42 1017.39 1017.35 1017.62 1017.71 1017.81 1017.85 1017.83 1017.83 1017.83 1017.82 1017.87 1017.98 1017.95 1017.98 1017.99 1018.04 1017.98 1018.00 1017.95 1017.84 1017.75 1017.71 1017.61 1017.54 1017.57 1017.70 1017.60 1017.51 1017.56
1008.16 1008.92 1009.20 1009.30 1009.65 1009.88 1010.35 1010.94 1011.59 1012.20 1012.74 1013.41 1013.84 1014.22 1015.00 1016.01 1016.76 1017.20 1017.62 1017.79 1017.84 1018.06 1018.06 1017.99 1018.06 1018.09 1018.06 1018.14 1018.10 1018.08 1018.06 1018.11 1018.11 1018.16 1018.07 1018.10 1018.12 1018.15 1018.06 1017.85 1017.81 1017.64 1017.49 1017.38 1017.36 1017.43 1017.54 1017.41 1017.40
1008.08 1008.55 1008.09 1007.80 1008.39 1009.27 1010.29 1010.91 1011.71 1012.46 1013.13 1014.12 1014.52 1015.02 1015.78 1016.33 1016.91 1017.30 1017.67 1017.87 1018.17 1018.30 1018.28 1018.18 1018.22 1018.26 1018.41 1018.29 1018.38 1018.39 1018.39 1018.42 1018.38 1018.41 1018.31 1018.21 1018.16 1018.15 1017.96 1017.93 1017.68 1017.69 1017.53 1017.34 1017.26 1017.25 1017.32 1017.69 1017.64
1007.51 1007.61 1007.23 1007.71 1008.12 1008.99 1010.15 1011.11 1011.75 1012.43 1013.24 1013.85 1014.33 1014.97 1015.88 1016.64 1017.04 1017.41 1017.67 1017.98 1018.12 1018.25 1018.29 1018.42 1018.40 1018.47 1018.53 1018.52 1018.63 1018.64 1018.58 1018.51 1018.50 1018.51 1018.42 1018.35 1018.15 1018.05 1018.07 1018.03 1018.01 1017.98 1017.71 1017.42 1017.41 1017.44 1017.42 1017.46 1017.42
1007.16 1007.00 1007.18 1007.84 1008.36 1009.35 1010.45 1011.27 1012.01 1012.71 1013.23 1013.25 1014.18 1014.98 1015.80 1016.63 1017.04 1017.38 1017.80 1018.13 1018.25 1018.35 1018.22 1018.53 1018.37 1018.47 1018.52 1018.55 1018.69 1018.71 1018.59 1018.54 1018.66 1018.61 1018.57 1018.53 1018.39 1018.31 1018.23 1018.23 1018.11 1017.88 1017.74 1017.69 1017.90 1017.67 1017.64 1017.46 1017.51
1007.09 1007.35 1007.68 1008.07 1008.72 1009.84 1010.59 1011.62 1012.35 1013.27 1013.55 1013.72 1014.29 1015.35 1016.10 1016.65 1017.21 1017.60 1017.90 1018.18 1018.37 1018.31 1018.43 1018.45 1018.24 1018.33 1018.48 1018.56 1018.78 1018.73 1018.59 1018.66 1018.68 1018.67 1018.56 1018.49 1018.50 1018.48 1018.35 1018.21 1018.16 1018.09 1017.96 1017.74 1017.64 1017.60 1017.46 1017.34 1017.53
1007.45 1007.75 1008.55 1009.10 1009.52 1010.28 1011.04 1012.01 1012.47 1013.69 1014.06 1014.50 1014.86 1015.54 1016.20 1016.71 1017.16 1017.61 1017.98 1018.23 1018.27 1018.21 1018.38 1018.26 1018.25 1018.22 1018.45 1018.66 1018.72 1018.70 1018.68 1018.58 1018.60 1018.57 1018.46 1018.40 1018.42 1018.31 1018.13 1018.05 1018.08 1017.98 1017.88 1017.62 1017.45 1017.30 1017.24 1017.10 1017.02
1007.78 1009.02 1009.41 1009.94 1010.18 1010.87 1011.06 1012.30 1013.11 1013.75 1014.26 1014.88 1015.35 1015.72 1016.28 1016.70 1017.15 1017.38 1017.58 1017.88 1017.88 1018.04 1018.12 1018.20 1018.12 1018.14 1018.49 1018.70 1018.70 1018.71 1018.58 1018.53 1018.56 1018.43 1018.32 1018.25 1018.15 1018.20 1018.18 1018.12 1018.01 1017.86 1017.70 1017.54 1017.26 1016.99 1016.94 1017.03 1016.91
1008.66 1009.46 1010.11 1010.08 1010.34 1010.73 1011.12 1012.29 1013.23 1013.74 1013.95 1014.82 1015.29 1015.64 1016.04 1016.41 1016.69 1016.90 1017.19 1017.42 1017.64 1017.87 1018.01 1018.01 1018.09 1018.17 1018.36 1018.58 1018.64 1018.63 1018.53 1018.52 1018.43 1018.41 1018.30 1018.11 1017.96 1017.98 1018.06 1018.07 1017.99 1017.82 1017.73 1017.56 1017.39 1017.40 1017.23 1017.17 1017.15
1009.23 1009.60 1009.83 1009.98 1009.87 1010.35 1011.31 1012.20 1013.01 1013.56 1013.85 1014.38 1014.92 1015.28 1015.61 1016.03 1016.34 1016.46 1016.75 1017.05 1017.36 1017.57 1017.80 1017.91 1018.09 1018.26 1018.34 1018.44 1018.57 1018.68 1018.58 1018.42 1018.34 1018.38 1018.27 1018.08 1017.88 1017.87 1017.95 1017.95 1017.87 1017.75 1017.64 1017.54 1017.60 1017.54 1017.56 1017.39 1017.18
1008.99 1009.16 1009.31 1009.33 1009.46 1010.22 1011.10 1011.85 1012.77 1013.37 1013.64 1013.85 1014.37 1014.70 1014.92 1015.20 1015.36 1015.70 1016.17 1016.57 1016.87 1017.26 1017.60 1017.78 1017.96 1018.23 1018.36 1018.42 1018.63 1018.68 1018.53 1018.30 1018.27 1018.29 1018.20 1018.02 1017.91 1017.87 1017.89 1017.86 1017.79 1017.76 1017.68 1017.68 1017.66 1017.60 1017.52 1017.48 1017.37
1007.86 1008.35 1008.51 1008.52 1008.77 1009.62 1010.58 1011.49 1012.34 1012.95 1013.39 1013.52 1013.87 1014.13 1014.30 1014.40 1014.44 1014.98 1015.43 1015.90 1016.43 1016.87 1017.36 1017.57 1017.93 1018.02 1018.37 1018.65 1018.86 1018.76 1018.64 1018.42 1018.32 1018.10 1017.96 1017.87 1017.82 1017.88 1018.00 1017.86 1017.73 1017.63 1017.66 1017.85 1017.90 1017.80 1017.93 1017.60 1017.46
1007.44 1008.03 1008.31 1008.34 1008.62 1009.41 1010.41 1011.11 1011.92 1012.38 1012.37 1012.73 1013.05 1013.37 1013.58 1013.97 1014.20 1014.57 1014.93 1015.44 1015.93 1016.33 1016.73 1017.24 1017.55 1017.72 1018.00 1018.24 1018.38 1018.31 1018.41 1018.36 1018.40 1018.13 1017.92 1017.85 1017.83 1017.89 1017.85 1017.81 1017.72 1017.83 1017.76 1017.91 1017.90 1017.93 1017.89 1017.80 1017.70
1007.14 1007.51 1007.77 1008.19 1008.66 1009.42 1010.20 1011.03 1011.48 1011.66 1011.96 1012.18 1012.38 1012.58 1012.82 1013.18 1013.64 1013.95 1014.43 1014.84 1015.37 1015.81 1016.16 1016.62 1016.98 1017.25 1017.56 1017.85 1018.15 1018.31 1018.38 1018.40 1018.43 1018.23 1018.07 1017.93 1017.92 1017.88 1017.84 1017.67 1017.55 1017.63 1017.69 1017.88 1018.02 1018.10 1018.14 1018.14 1018.00
1006.55 1006.23 1007.09 1007.96 1009.06 1009.58 1009.77 1010.83 1010.75 1010.68 1011.02 1011.28 1011.33 1011.64 1011.92 1012.36 1012.81 1013.21 1013.70 1014.29 1014.71 1015.05 1015.51 1015.92 1016.32 1016.70 1017.09 1017.45 1017.86 1018.15 1018.18 1018.50 1018.41 1018.24 1018.20 1018.14 1017.99 1017.83 1017.82 1017.61 1017.41 1017.62 1017.59 1017.93 1018.10 1018.21 1018.29 1018.25 1018.36
1005.41 1005.85 1006.85 1007.90 1009.11 1009.60 1010.15 1010.73 1009.16 1009.54 1010.33 1009.99 1009.86 1010.21 1010.75 1011.27 1011.89 1012.37 1012.86 1013.38 1013.88 1014.48 1014.88 1015.31 1015.76 1016.13 1016.49 1016.96 1017.31 1017.65 1017.94 1018.13 1018.16 1018.26 1018.32 1018.32 1018.04 1017.92 1017.80 1017.68 1017.67 1017.84 1017.92 1018.04 1018.27 1018.30 1018.35 1018.39 1018.49
1005.12 1006.28 1007.71 1009.01 1009.93 1010.59 1009.71 1009.87 1008.02 1008.46 1007.18 1007.83 1008.29 1008.93 1009.42 1010.21 1010.92 1011.50 1012.14 1012.82 1013.33 1013.82 1014.32 1014.77 1015.32 1015.59 1015.99 1016.35 1016.76 1017.08 1017.48 1017.83 1018.18 1018.19 1018.39 1018.21 1018.15 1018.01 1017.76 1017.61 1017.70 1017.91 1017.97 1018.17 1018.23 1018.42 1018.48 1018.62 1018.67
1005.14 1006.82 1008.72 1010.27 1010.77 1010.30 1009.47 1009.32 1006.74 1005.57 1005.41 1005.58 1006.51 1007.59 1008.35 1009.09 1010.04 1010.77 1011.52 1012.22 1012.79 1013.23 1013.68 1014.21 1014.71 1015.09 1015.44 1015.85 1016.25 1016.56 1017.01 1017.44 1017.76 1017.91 1018.11 1018.10 1018.11 1017.96 1017.75 1017.50 1017.70 1017.87 1017.95 1018.06 1018.29 1018.52 1018.77 1018.97 1019.13
1004.97 1006.18 1007.96 1009.49 1010.37 1010.05 1009.26 1008.04 1004.98 1003.46 1003.64 1004.41 1005.16 1005.97 1007.42 1008.31 1009.07 1009.77 1010.39 1011.17 1011.89 1012.48 1013.01 1013.50 1013.93 1014.43 1014.88 1015.24 1015.57 1015.99 1016.50 1016.99 1017.35 1017.54 1017.73 1017.81 1017.94 1017.81 1017.49 1017.50 1017.64 1017.76 1018.03 1018.42 1018.63 1018.84 1019.18 1019.44 1019.57
1004.76 1005.82 1006.51 1008.66 1009.90 1009.82 1008.61 1006.71 1004.15 1003.21 1003.55 1004.11 1004.88 1005.92 1006.81 1007.38 1008.07 1008.75 1009.52 1010.27 1011.00 1011.62 1012.11 1012.55 1013.09 1013.68 1014.12 1014.49 1015.07 1015.52 1015.96 1016.47 1016.86 1017.04 1017.27 1017.41 1017.56 1017.46 1017.35 1017.48 1017.87 1018.15 1018.56 1018.89 1019.10 1019.43 1019.67 1019.67 1019.86
1002.65 1004.24 1006.66 1008.54 1009.53 1009.89 1008.47 1006.89 1004.88 1003.32 1003.59 1003.79 1004.69 1005.21 1006.09 1006.70 1007.39 1008.07 1008.77 1009.39 1009.98 1010.50 1011.13 1011.84 1012.36 1012.77 1013.24 1013.85 1014.44 1014.91 1015.36 1015.81 1016.20 1016.55 1016.74 1017.03 1017.16 1017.19 1017.40 1017.86 1018.30 1018.76 1018.99 1019.24 1019.54 1019.71 1019.87 1019.95 1020.17
1003.01 1004.14 1006.08 1007.28 1008.47 1009.00 1008.44 1006.53 1003.57 1002.77 1002.79 1003.14 1003.70 1004.40 1005.26 1005.88 1006.49 1007.26 1008.01 1008.70 1009.25 1009.93 1010.67 1011.11 1011.68 1012.28 1012.71 1013.10 1013.69 1014.22 1014.71 1015.22 1015.62 1015.99 1016.24 1016.65 1016.94 1017.25 1017.73 1018.23 1018.69 1019.08 1019.42 1019.63 1019.70 1019.96 1020.24 1020.40 1020.50
1001.77 1003.28 1004.65 1006.85 1008.39 1008.50 1007.60 1004.65 1002.69 1002.23 1002.15 1002.87 1003.30 1003.80 1004.59 1005.12 1005.83 1006.64 1007.36 1008.12 1008.84 1009.37 1009.88 1010.31 1010.87 1011.55 1011.85 1012.45 1013.15 1013.70 1014.30 1014.74 1015.13 1015.44 1015.87 1016.32 1016.88 1017.42 1017.94 1018.52 1018.98 1019.39 1019.70 1019.91 1020.05 1020.42 1020.62 1020.66 1020.88
Thickness
5807 5804 5803 5794 5766 5760 5744 5754 5765 5764 5769 5774 5782 5774 5763 5759 5757 5743 5762 5767 5767 5767 5766 5767 5767 5770 5772 5772 5772 5774 5774 5773 5771 5770 5770 5771 5771 5769 5767 5765 5764 5763 5760 5758 5757 5756 5755 5754 5752
5810 5805 5798 5782 5756 5743 5747 5768 5758 5770 5775 5779 5779 5774 5765 5752 5764 5761 5761 5766 5769 5767 5768 5768 5768 5769 5769 5771 5772 5772 5773 5772 5770 5769 5769 5768 5769 5767 5765 5764 5763 5761 5759 5756 5754 5754 5753 5750 5749
5813 5812 5785 5768 5756 5746 5753 5772 5775 5772 5781 5779 5767 5777 5766 5755 5763 5762 5767 5767 5766 5765 5768 5770 5768 5768 5769 5769 5770 5769 5770 5769 5769 5767 5766 5765 5764 5764 5763 5762 5761 5759 5757 5755 5753 5751 5749 5748 5748
5806 5796 5784 5764 5761 5772 5774 5779 5782 5774 5777 5778 5774 5758 5764 5768 5766 5766 5766 5766 5764 5763 5765 5768 5768 5767 5767 5766 5767 5766 5767 5767 5766 5765 5765 5763 5762 5760 5760 5760 5759 5757 5756 5754 5753 5751 5750 5748 5747
5806 5790 5769 5764 5764 5776 5784 5787 5786 5774 5772 5770 5773 5757 5757 5761 5766 5764 5763 5764 5763 5762 5764 5765 5766 5767 5765 5764 5764 5766 5766 5765 5764 5762 5762 5761 5760 5759 5759 5758 5757 5756 5755 5754 5752 5750 5749 5748 5748
5792 5789 5763 5749 5763 5772 5780 5786 5781 5772 5769 5768 5764 5760 5753 5762 5762 5761 5762 5762 5764 5765 5764 5764 5765 5766 5764 5763 5763 5765 5764 5763 5760 5759 5759 5758 5756 5757 5756 5756 5756 5756 5754 5753 5750 5748 5747 5746 5746
5792 5780 5770 5763 5764 5767 5774 5785 5774 5770 5768 5765 5773 5755 5754 5756 5761 5763 5763 5763 5764 5765 5762 5763 5764 5765 5763 5763 5763 5763 5761 5761 5759 5758 5757 5755 5754 5755 5756 5755 5755 5755 5754 5752 5748 5745 5744 5744 5742
5801 5788 5775 5772 5760 5766 5780 5780 5781 5775 5764 5779 5776 5754 5751 5758 5761 5762 5762 5762 5763 5763 5761 5761 5761 5760 5762 5761 5761 5761 5759 5759 5760 5759 5757 5755 5755 5755 5755 5756 5755 5753 5752 5752 5750 5746 5742 5743 5743
5816 5776 5764 5770 5769 5775 5783 5775 5783 5782 5771 5771 5771 5769 5768 5763 5760 5759 5756 5758 5759 5759 5761 5759 5759 5760 5760 5760 5760 5761 5760 5760 5759 5757 5758 5757 5756 5756 5757 5756 5751 5752 5753 5753 5751 5750 5746 5747 5745
5797 5771 5783 5803 5797 5784 5784 5781 5776 5770 5764 5757 5760 5765 5763 5761 5757 5756 5755 5756 5755 5756 5758 5760 5759 5760 5759 5760 5761 5761 5759 5758 5758 5757 5758 5758 5757 5757 5758 5754 5754 5753 5754 5755 5755 5753 5750 5746 5746
5803 5786 5805 5805 5804 5800 5785 5780 5783 5770 5759 5762 5760 5761 5758 5756 5755 5755 5757 5756 5756 5757 5759 5759 5759 5760 5760 5761 5762 5760 5759 5759 5758 5758 5758 5758 5758 5759 5758 5756 5754 5753 5755 5757 5756 5755 5753 5750 5750
5801 5813 5812 5806 5806 5797 5784 5784 5774 5772 5768 5777 5770 5765 5759 5754 5753 5754 5753 5753 5754 5755 5760 5759 5760 5761 5761 5762 5761 5761 5760 5760 5759 5758 5758 5758 5758 5758 5758 5756 5755 5756 5756 5756 5754 5755 5752 5751 5748
5804 5808 5810 5810 5805 5795 5793 5778 5774 5767 5771 5774 5771 5761 5756 5753 5753 5752 5753 5755 5755 5757 5759 5760 5762 5763 5764 5764 5762 5762 5764 5762 5760 5758 5758 5759 5759 5758 5759 5758 5757 5757 5757 5758 5757 5756 5754 5753 5750
5807 5806 5802 5802 5798 5792 5781 5775 5778 5768 5770 5765 5762 5756 5755 5752 5752 5750 5751 5753 5755 5760 5759 5763 5764 5765 5766 5765 5764 5766 5766 5764 5761 5758 5758 5759 5761 5761 5761 5761 5759 5759 5759 5759 5759 5757 5756 5756 5755
5806 5784 5791 5792 5791 5782 5786 5766 5761 5770 5769 5762 5757 5755 5753 5752 5753 5753 5756 5755 5759 5760 5762 5763 5767 5768 5767 5766 5767 5767 5768 5765 5762 5761 5760 5761 5763 5763 5763 5762 5762 5762 5761 5760 5760 5759 5758 5756 5755
5790 5782 5761 5787 5790 5789 5785 5757 5767 5772 5770 5761 5760 5758 5756 5754 5755 5758 5761 5762 5763 5763 5764 5767 5771 5770 5769 5768 5769 5770 5769 5767 5767 5766 5766 5764 5767 5766 5766 5764 5764 5764 5762 5760 5759 5758 5758 5756 5755
5776 5758 5767 5775 5796 5790 5779 5761 5771 5774 5771 5766 5764 5762 5760 5758 5759 5764 5766 5767 5767 5767 5768 5770 5772 5771 5771 5771 5771 5771 5770 5770 5770 5769 5766 5768 5770 5768 5766 5767 5766 5765 5763 5763 5759 5758 5755 5755 5755
5765 5769 5773 5773 5789 5789 5775 5771 5772 5774 5773 5771 5770 5768 5767 5766 5768 5771 5772 5773 5772 5772 5773 5775 5775 5774 5774 5773 5772 5773 5773 5774 5772 5769 5769 5771 5770 5769 5770 5769 5768 5765 5763 5762 5760 5758 5758 5756 5755
5788 5782 5779 5790 5800 5787 5775 5774 5773 5777 5775 5774 5774 5774 5774 5775 5781 5780 5780 5780 5777 5777 5776 5777 5776 5777 5775 5773 5772 5773 5772 5773 5772 5774 5774 5774 5773 5772 5770 5769 5767 5764 5763 5761 5759 5757 5754 5755 5754
5790 5780 5777 5790 5799 5792 5777 5776 5779 5780 5783 5784 5783 5782 5783 5780 5781 5783 5784 5783 5781 5780 5782 5781 5781 5781 5780 5779 5777 5777 5776 5775 5775 5776 5777 5777 5775 5773 5772 5770 5768 5764 5763 5761 5760 5757 5752 5750 5751
5783 5778 5780 5784 5791 5790 5780 5770 5773 5785 5789 5790 5792 5794 5793 5790 5786 5787 5788 5789 5789 5787 5787 5788 5788 5787 5786 5784 5781 5779 5779 5777 5776 5777 5776 5775 5774 5774 5774 5773 5771 5768 5765 5761 5758 5755 5751 5744 5743
5774 5800 5797 5789 5774 5755 5788 5746 5770 5784 5785 5790 5795 5798 5800 5798 5799 5798 5796 5794 5796 5797 5796 5795 5794 5793 5791 5788 5784 5781 5779 5774 5777 5777 5775 5775 5775 5775 5773 5772 5771 5767 5764 5759 5755 5753 5748 5743 5736
5792 5805 5797 5790 5774 5771 5773 5757 5782 5791 5781 5793 5804 5807 5810 5809 5807 5805 5805 5805 5805 5804 5802 5802 5800 5799 5796 5793 5790 5787 5783 5782 5780 5777 5775 5773 5774 5774 5772 5771 5769 5765 5762 5757 5752 5749 5744 5739 5734
5812 5796 5779 5763 5755 5739 5766 5770 5785 5782 5809 5811 5817 5815 5817 5818 5817 5816 5814 5812 5810 5811 5809 5807 5803 5802 5801 5798 5795 5793 5788 5783 5779 5778 5775 5776 5775 5775 5774 5772 5770 5765 5761 5755 5750 5744 5739 5733 5728
5795 5771 5731 5731 5731 5738 5769 5767 5806 5824 5830 5834 5827 5820 5824 5828 5824 5821 5817 5815 5814 5813 5814 5812 5808 5806 5805 5802 5800 5797 5792 5788 5784 5782 5779 5778 5776 5775 5775 5774 5770 5765 5761 5754 5747 5741 5735 5729 5723
5781 5777 5736 5727 5726 5748 5764 5762 5808 5851 5852 5850 5845 5840 5834 5834 5832 5829 5827 5825 5822 5821 5820 5818 5815 5811 5809 5807 5805 5801 5797 5792 5788 5786 5784 5782 5778 5777 5776 5773 5769 5764 5758 5750 5743 5737 5731 5724 5717
5776 5763 5790 5748 5750 5746 5764 5791 5831 5851 5844 5846 5840 5838 5836 5842 5840 5837 5836 5834 5831 5829 5827 5826 5822 5818 5815 5813 5808 5804 5801 5796 5793 5791 5790 5787 5783 5780 5777 5772 5767 5760 5752 5745 5739 5731 5724 5720 5713
5805 5809 5765 5741 5737 5735 5755 5774 5787 5838 5834 5843 5839 5841 5841 5846 5846 5844 5842 5840 5840 5839 5836 5832 5829 5825 5822 5817 5813 5809 5806 5802 5799 5796 5794 5789 5786 5782 5777 5770 5762 5755 5748 5741 5734 5727 5721 5716 5708
5783 5774 5763 5766 5752 5737 5735 5764 5821 5845 5846 5847 5851 5850 5849 5851 5853 5850 5848 5847 5846 5843 5839 5836 5833 5828 5824 5822 5818 5815 5811 5807 5804 5800 5798 5792 5787 5782 5774 5766 5758 5750 5743 5736 5731 5723 5716 5708 5700
5812 5789 5783 5750 5747 5745 5751 5778 5843 5852 5857 5855 5856 5857 5857 5859 5859 5856 5853 5850 5846 5845 5843 5841 5839 5833 5831 5827 5821 5818 5813 5810 5807 5804 5800 5794 5787 5779 5771 5763 5755 5747 5738 5730 5725 5716 5708 5701 5692